KKINGSHI2 Weather Reports


time (UTC)temp
F
wind
direction
speed
knots
gust
knots
rain 1hr
in
rain 24hr
in
rain mn
in
humidity
%
barometer
mb
20260507190031 84 67 6.1 11.3 0.00 0.21 0.21 73 1018.0
20260507184522 85 100 4.3 13.0 0.00 0.21 0.21 74 1018.1
20260507183034 86 101 5.2 11.3 0.00 0.21 0.21 73 1018.1
20260507181520 85 111 5.2 12.2 0.00 0.21 0.21 73 1018.2
20260507180019 86 103 6.1 12.2 0.00 0.21 0.21 73 1018.5
20260507174519 86 150 6.1 11.3 0.00 0.21 0.21 71 1018.6
20260507173019 86 76 5.2 12.2 0.00 0.21 0.21 71 1018.9
20260507171517 86 80 5.2 12.2 0.00 0.21 0.21 75 1019.0
20260507170016 85 93 6.1 11.3 0.00 0.21 0.21 73 1019.2
20260507164516 86 89 4.3 12.2 0.00 0.21 0.21 73 1019.3
20260507163016 87 73 4.3 13.0 0.00 0.21 0.21 71 1019.4
20260507161518 87 110 3.5 9.6 0.00 0.21 0.21 71 1019.4
20260507160026 86 128 5.2 12.2 0.00 0.21 0.21 71 1019.7
20260507154513 87 130 5.2 11.3 0.00 0.21 0.21 72 1019.8
20260507153017 86 146 5.2 12.2 0.00 0.21 0.21 72 1019.9
20260507151509 86 81 6.1 13.0 0.00 0.21 0.21 72 1020.1
20260507150008 87 148 6.1 10.4 0.00 0.21 0.21 73 1020.3
20260507144517 87 135 6.1 12.2 0.00 0.21 0.21 72 1020.5
20260507143007 86 87 3.5 14.8 0.00 0.21 0.21 73 1020.3
20260507141504 87 104 5.2 10.4 0.00 0.21 0.21 73 1020.2
20260507140001 85 109 6.1 11.3 0.00 0.21 0.21 75 1020.3
20260507134609 83 93 3.5 10.4 0.00 0.21 0.21 77 1020.0
20260507133108 85 140 3.5 8.7 0.00 0.21 0.21 73 1020.0
20260507133003 85 138 4.3 9.6 0.00 0.21 0.21 73 1020.0
20260507131600 84 150 5.2 10.4 0.00 0.21 0.21 74 1019.9
20260507130052 81 93 2.6 7.8 0.00 0.21 0.21 81 1019.7
20260507124553 81 42 3.5 7.8 0.00 0.21 0.21 82 1019.7
20260507123052 80 115 0.9 7.0 0.00 0.21 0.21 82 1019.6
20260507121549 80 109 0.9 6.1 0.00 0.21 0.21 83 1019.5
20260507120048 80 150 2.6 9.6 0.00 0.21 0.21 83 1019.5
20260507114554 79 164 4.3 7.0 0.00 0.21 0.21 85 1019.4
20260507113050 79 139 4.3 7.0 0.00 0.21 0.21 85 1019.3
20260507111556 80 145 0.9 7.8 0.00 0.21 0.21 84 1019.2
20260507110042 79 133 2.6 7.8 0.00 0.21 0.21 87 1019.0
20260507104541 77 171 2.6 7.0 0.00 0.21 0.21 88 1019.0
20260507103040 77 161 2.6 8.7 0.00 0.21 0.21 88 1018.9
20260507101543 77 157 2.6 7.8 0.00 0.21 0.21 89 1018.9
20260507100040 76 156 1.7 6.1 0.00 0.21 0.21 90 1018.8
20260507094541 76 146 0.9 7.0 0.00 0.21 0.21 90 1018.7
20260507093044 76 147 0.9 6.1 0.00 0.21 0.21 91 1018.8
20260507091539 76 158 0.0 7.8 0.00 0.21 0.21 91 1018.6
20260507090037 76 180 0.0 7.0 0.00 0.21 0.21 92 1018.6
20260507084540 76 171 1.7 6.1 0.00 0.21 0.21 92 1018.6
20260507083038 76 175 0.0 5.2 0.00 0.21 0.21 92 1018.5
20260507081537 76 169 0.9 5.2 0.00 0.21 0.21 92 1018.3
20260507080036 76 173 1.7 6.1 0.02 0.21 0.21 93 1018.4
20260507074533 76 109 2.6 10.4 0.04 0.21 0.21 93 1018.3
20260507073031 76 165 3.5 7.8 0.04 0.21 0.21 93 1018.4
20260507071529 76 164 1.7 6.1 0.07 0.21 0.21 93 1018.7
20260507070026 76 155 2.6 7.8 0.09 0.19 0.19 92 1018.8
20260507064526 76 155 2.6 7.0 0.17 0.17 0.17 92 1018.9
20260507063024 76 140 0.0 6.1 0.17 0.17 0.17 92 1018.9
20260507061523 76 206 2.6 7.0 0.14 0.14 0.14 92 1019.0
20260507060018 76 207 5.2 9.6 0.09 0.09 0.09 89 1019.3
20260507054516 78 192 3.5 8.7 0.00 0.00 0.00 88 1019.4
20260507053013 78 98 2.6 8.7 0.00 0.00 0.00 86 1019.5
20260507051512 79 80 4.3 10.4 0.00 0.00 0.00 87 1019.8
20260507050009 79 126 3.5 8.7 0.00 0.00 0.00 86 1020.1
20260507044507 79 84 4.3 10.4 0.00 0.00 0.00 87 1020.4
20260507043005 79 92 5.2 10.4 0.00 0.00 0.00 87 1020.5
20260507041508 79 117 2.6 8.7 0.00 0.00 0.00 88 1020.5
20260507040101 79 77 4.3 11.3 0.00 0.00 0.00 87 1020.6
20260507034607 79 103 4.3 11.3 0.00 0.00 0.00 87 1020.7
20260507033055 79 80 3.5 8.7 0.00 0.00 0.00 86 1020.8
20260507031552 79 113 1.7 10.4 0.00 0.00 0.00 86 1020.9
20260507030056 79 101 3.5 7.8 0.00 0.00 0.00 86 1020.9
20260507024549 79 84 2.6 8.7 0.00 0.00 0.00 86 1021.1
20260507023151 79 89 1.7 7.8 0.00 0.00 0.00 86 1021.0
20260507021552 79 82 0.0 8.7 0.00 0.00 0.00 86 1021.0
20260507020047 79 103 2.6 9.6 0.00 0.00 0.00 86 1020.9
20260507014557 79 138 3.5 9.6 0.00 0.00 0.00 86 1020.7
20260507013107 79 107 3.5 7.8 0.00 0.00 0.00 87 1020.4
20260507011546 79 101 4.3 8.7 0.00 0.00 0.00 87 1020.4
20260507010045 79 150 1.7 7.8 0.00 0.00 0.00 87 1020.2
20260507004545 79 186 0.9 7.8 0.00 0.00 0.00 87 1020.0
20260507003044 78 160 2.6 6.1 0.00 0.00 0.00 87 1020.0
20260507001600 78 160 0.9 5.2 0.00 0.00 0.00 87 1019.9
20260507000042 79 161 0.0 4.3 0.00 0.00 0.00 87 1019.7
20260506234542 79 161 2.6 6.1 0.00 0.00 0.00 87 1019.4
20260506233045 79 162 2.6 7.8 0.00 0.00 0.00 86 1019.3
20260506231547 79 159 2.6 7.8 0.00 0.00 0.00 86 1019.3
20260506230040 79 142 1.7 6.1 0.00 0.00 0.00 85 1019.2
20260506224540 79 162 0.9 7.8 0.00 0.00 0.00 84 1019.0
20260506223049 79 115 0.9 6.1 0.00 0.00 0.00 84 1018.9
20260506221538 80 165 5.2 7.8 0.00 0.00 0.00 83 1018.7
20260506220038 81 91 2.6 8.7 0.00 0.00 0.00 83 1018.8
20260506214540 81 139 2.6 7.0 0.00 0.00 0.00 82 1018.7
20260506213038 81 111 3.5 9.6 0.00 0.00 0.00 82 1018.5
20260506211535 81 108 3.5 11.3 0.00 0.00 0.00 83 1018.7
20260506210039 82 114 4.3 9.6 0.00 0.00 0.00 81 1018.6
20260506204535 81 121 4.3 12.2 0.00 0.00 0.00 80 1018.5
20260506203042 81 117 5.2 10.4 0.00 0.00 0.00 83 1018.4
20260506201533 81 83 6.1 12.2 0.00 0.00 0.00 82 1018.4
20260506200035 82 98 5.2 11.3 0.00 0.00 0.00 82 1018.6
20260506194530 81 96 6.1 13.9 0.00 0.00 0.00 83 1018.6
20260506193029 81 62 5.2 12.2 0.00 0.00 0.00 82 1018.6
20260506191532 82 121 5.2 12.2 0.00 0.00 0.00 81 1018.8
20260506190128 82 96 5.2 13.9 0.00 0.00 0.00 82 1019.0